Weather History for Rome Ciampino, Italy

Change the Weather History Date:

Tuesday, September 30, 2014

  Actual Average Record
Temperature  
Mean Temperature 67 °F -  
Max Temperature 78 °F 71 °F 82 °F (2011)
Min Temperature 56 °F 51 °F 46 °F (2008)
Cooling Degree Days 2    
Growing Degree Days 17 (Base 50)    
Moisture  
Dew Point 56 °F    
Average Humidity 69    
Maximum Humidity 88    
Minimum Humidity 28    
Precipitation  
Precipitation 0.00 in 0.12 in - ()
Sea Level Pressure  
Sea Level Pressure 30.29 in    
Wind  
Wind Speed 2 mph ()    
Max Wind Speed 8 mph    
Max Gust Speed -    
Visibility 6.5 miles    
Events      
Averages and records for this station are not official NWS values.
T = Trace of Precipitation, MM = Missing Value Source: Averaged Metar Reports

Daily Weather History Graph

Daily Weather History Graph

Search for Another Location

Airport:

Trip Planner

Search our weather history database for the weather conditions in past years. The results will help you decide how hot, cold, wet, or windy it might be!

Date:

Astronomy

Sep. 30, 2014 Rise Set
Actual Time 7:05 AM CEST 6:53 PM CEST
Civil Twilight 6:37 AM CEST 7:21 PM CEST
Nautical Twilight 6:05 AM CEST 7:53 PM CEST
Astronomical Twilight 5:32 AM CEST 8:26 PM CEST
Moon 1:01 PM CEST (9/30) 11:03 PM CEST (9/30)
Length of Visible Light 12h 43m
Length of Day
11h 48m
Waxing Crescent, 35% of the Moon is Illuminated
Sep 30
Waxing Crescent
Oct 1
First Quarter
Oct 8
Full
Oct 15
Last Quarter
Oct 23
New

Hourly Weather History & Observations

Time (CEST) Temp. Dew Point Humidity Pressure Visibility Wind Dir Wind Speed Gust Speed Precip Events Conditions
12:15 AM 62.6 °F 57.2 °F 82% 30.33 in 6.2 mi ESE 5.8 mph - N/A   Partly Cloudy
12:45 AM 62.6 °F 55.4 °F 77% 30.30 in 6.2 mi East 1.2 mph - N/A   Partly Cloudy
1:15 AM 60.8 °F 55.4 °F 82% 30.30 in 6.2 mi Calm Calm - N/A   Partly Cloudy
1:45 AM 62.6 °F 57.2 °F 82% 30.30 in 6.2 mi Calm Calm - N/A   Scattered Clouds
2:00 AM 63 °F 57 °F 74% 30.32 in 6 mi Calm Calm - -   Partly Cloudy
2:15 AM 62.6 °F 55.4 °F 77% 30.30 in 6.2 mi Calm Calm - N/A   Partly Cloudy
2:45 AM 60.8 °F 55.4 °F 82% 30.30 in 6.2 mi East 2.3 mph - N/A   Partly Cloudy
3:15 AM 60.8 °F 55.4 °F 82% 30.30 in 6.2 mi NE 2.3 mph - N/A   Partly Cloudy
3:45 AM 59.0 °F 55.4 °F 88% 30.30 in - East 2.3 mph - N/A   Clear
4:15 AM 59.0 °F 55.4 °F 88% 30.30 in - NE 2.3 mph - N/A   Clear
4:45 AM 59.0 °F 55.4 °F 88% 30.27 in - Calm Calm - N/A   Clear
5:00 AM 59 °F 55 °F 82% 30.30 in 6 mi Calm Calm - -  
5:15 AM 59.0 °F 53.6 °F 82% 30.27 in - Calm Calm - N/A   Clear
5:45 AM 59.0 °F 53.6 °F 82% 30.27 in - East 1.2 mph - N/A   Clear
6:15 AM 59.0 °F 55.4 °F 88% 30.27 in - Calm Calm - N/A   Clear
6:45 AM 59.0 °F 55.4 °F 88% 30.27 in - Calm Calm - N/A   Clear
7:15 AM 57.2 °F 53.6 °F 88% 30.27 in - Calm Calm - N/A   Clear
7:45 AM 57.2 °F 53.6 °F 88% 30.27 in - Calm Calm - N/A   Clear
8:00 AM 57 °F 54 °F 84% 30.30 in 6 mi Calm Calm - -  
8:15 AM 59.0 °F 55.4 °F 88% 30.27 in - Calm Calm - N/A   Clear
8:45 AM 60.8 °F 55.4 °F 82% 30.30 in - East 2.3 mph - N/A   Clear
9:15 AM 64.4 °F 55.4 °F 73% 30.30 in - ENE 2.3 mph - N/A   Clear
9:45 AM 66.2 °F 57.2 °F 73% 30.30 in - NE 2.3 mph - N/A   Clear
10:15 AM 68.0 °F 57.2 °F 68% 30.30 in 6.2 mi North 1.2 mph - N/A   Partly Cloudy
10:45 AM 68.0 °F 57.2 °F 68% 30.30 in 6.2 mi North 1.2 mph - N/A   Partly Cloudy
11:00 AM 68 °F 58 °F 61% 30.31 in 6 mi North 1.2 mph - -   Scattered Clouds
11:15 AM 71.6 °F 51.8 °F 50% 30.30 in 6.2 mi WSW 3.5 mph - N/A   Partly Cloudy
11:45 AM 73.4 °F 53.6 °F 50% 30.30 in 6.2 mi SSW 3.5 mph - N/A   Partly Cloudy
12:15 PM 75.2 °F 51.8 °F 44% 30.30 in 6.2 mi SE 2.3 mph - N/A   Partly Cloudy
12:45 PM 75.2 °F 51.8 °F 44% 30.30 in 6.2 mi South 5.8 mph - N/A   Partly Cloudy
1:15 PM 77.0 °F 50.0 °F 39% 30.30 in 6.2 mi ESE 3.5 mph - N/A   Partly Cloudy
1:45 PM 77.0 °F 50.0 °F 39% 30.30 in 6.2 mi East 3.5 mph - N/A   Partly Cloudy
2:00 PM 77 °F 50 °F 28% 30.31 in 9 mi East 3.5 mph - -   Scattered Clouds
2:15 PM 77.0 °F 50.0 °F 39% 30.30 in 6.2 mi South 5.8 mph - N/A   Partly Cloudy
2:45 PM 77.0 °F 51.8 °F 41% 30.30 in 6.2 mi SSW 5.8 mph - N/A   Partly Cloudy
3:15 PM 77.0 °F 51.8 °F 41% 30.27 in 6.2 mi SSE 4.6 mph - N/A   Partly Cloudy
3:45 PM 78.8 °F 55.4 °F 44% 30.27 in 6.2 mi South 4.6 mph - N/A   Partly Cloudy
4:15 PM 77.0 °F 55.4 °F 47% 30.27 in 6.2 mi SSW 8.1 mph - N/A   Partly Cloudy
4:45 PM 77.0 °F 59.0 °F 54% 30.27 in 6.2 mi SSW 6.9 mph - N/A   Partly Cloudy
5:00 PM 77 °F 58 °F 42% 30.27 in 9 mi SSW 6.9 mph - -   Scattered Clouds
5:15 PM 77.0 °F 59.0 °F 54% 30.27 in 6.2 mi SSW 5.8 mph - N/A   Partly Cloudy
5:45 PM 75.2 °F 59.0 °F 57% 30.27 in - SW 5.8 mph - N/A   Clear
6:15 PM 73.4 °F 59.0 °F 61% 30.27 in - WSW 6.9 mph - N/A   Clear
6:45 PM 71.6 °F 60.8 °F 69% 30.27 in 6.2 mi WSW 5.8 mph - N/A   Partly Cloudy
7:15 PM 69.8 °F 60.8 °F 73% 30.27 in 6.2 mi SSW 3.5 mph - N/A   Partly Cloudy
7:45 PM 69.8 °F 60.8 °F 73% 30.27 in 6.2 mi SSW 2.3 mph - N/A   Partly Cloudy
8:00 PM 69 °F 60 °F 66% 30.29 in 9 mi SSW 2.3 mph - -   Scattered Clouds
8:15 PM 68.0 °F 60.8 °F 78% 30.27 in - South 3.5 mph - N/A   Clear
8:45 PM 68.0 °F 60.8 °F 78% 30.27 in - SSE 3.5 mph - N/A   Clear
9:15 PM 68.0 °F 60.8 °F 78% 30.27 in - SE 1.2 mph - N/A   Clear
9:45 PM 66.2 °F 60.8 °F 83% 30.27 in - ESE 4.6 mph - N/A   Clear
10:15 PM 66.2 °F 60.8 °F 83% 30.27 in - ESE 3.5 mph - N/A   Clear
10:45 PM 64.4 °F 60.8 °F 88% 30.27 in - ESE 4.6 mph - N/A   Clear
11:00 PM 65 °F 60 °F 81% 30.29 in 9 mi ESE 4.6 mph - -  
11:15 PM 64.4 °F 60.8 °F 88% 30.27 in - ESE 4.6 mph - N/A   Clear
11:45 PM 64.4 °F 59.0 °F 83% 30.27 in - ESE 4.6 mph - N/A   Clear